STARLINK-1151, 45081

Orbit data source: Space-Track

STARLINK-1151, 45081 is a payload satellite owned by SpaceX/Seattle (US) in LEO that was launched on Wed, 29 Jan 2020 UTC via an FALCON 9 launch vehicle from the Air Force Eastern Test Range (AFETR). Payloads include a variety of satellites, spacecraft, and rockets equipped with specific instruments for various scientific and technological missions. These include communications satellites like Starlink; space stations such as the ISS; scientific satellites like the Hubble; Earth observation satellites from companies like Planet Labs, Umbra, and HawkEye 360; GPS; miniature CubeSats for education and research; and military/defense satellites.

Loading next visibility...
STARLINK-1151 details
Identifier
45081, 2020-006AP
Orbit
LEO
Last TLE update11 hours ago
Origin
Flag of USSpaceX/Seattle (US)
ManufacturerSpaceX/Seattle
MissionOperational Commercial Communications
Bus & MotorSTARLINK, Unknown motor
Mass260 kg wet, ~248 kg dry
Launch date (UTC)
2020-01-29 (5 years ago)
Launch vehicle
FALCON 9
Launch site
Air Force Eastern Test Range (AFETR)
Object type
Payload
Rocket body
Debris
Shape & HBRBox + 1 Pan, 8.86 m
Radar Cross Section13.562 m², Large (>1 m²)

Expand to show TLE details & history

TLE from 11 hours ago
0 STARLINK-1151
1 45081U 20006AP  25024.14183665  .00030340  00000-0  20480-2 0  9999
2 45081  53.0547 305.2280 0001285  94.8295 265.2841 15.06381625275365
Epoch: 2025-01-24T03:24Z
Definitive object data (Epoch: 2025-01-24T03:24:14.686Z)
Latitude-0°
Longitude130.45755°
Altitude548.22 km
Speed7.589 km/s
True Right ascension20h 20m 54s
True Declination0° 00' 00"
Sunlit
Object was in daylight at TLE epoch
Visualization TLE readout
Latitude-53.06615°
Longitude32.68846°
Altitude566.51 km
Speed7.577 km/s
Apparent Right ascension07h 14m 15s
Apparent Declination-78° 18' 26"
Sunlit
Object is in daylight
Visualization observer readout
Local Sidereal Time15:24:18
Azimuth194.084° SSW
Elevation-45.389°
Doppler factor1
Orbital elements
Apogee altitude548.429 km
Perigee altitude546.649 km
Semi-major axis6,925.676 km
Eccentricity0.0001285
Inclination53.0547°
RAAN305.228°
Arg. of periapsis94.8295°
True anomaly265.26943°
Mean anomaly265.2841°
Eccentric anomaly265.27676°
Mean motion3.76574 °/min
BSTAR0.002048
Orbital period95.6 mins
Loading maneuver chart data...
Loading historical data...
Loading historical data...
Loading historical data...
Loading historical data...
Loading historical data...
Loading historical data...
Loading historical data...

STARLINK-1151 Visibility forecast

Observer location: undefined°, undefined

Span
Click to sort rows by Start time (UTC) header in descending order
Start Az.
Max El. time (UTC)
Max El. Az.
Max El.
End time (UTC)
End Az.
7 mins2025-01-24 21:05:10.956Z216.873° SW2025-01-24 21:08:10.956Z175.312° S40.511°2025-01-24 21:12:10.956Z56.614° ENE
5 mins2025-01-24 22:46:10.956Z289.947° WNW2025-01-24 22:48:10.956Z328.282° NNW22.827°2025-01-24 22:51:10.956Z25.298° NE
4 mins2025-01-25 02:08:10.956Z346.106° N2025-01-25 02:10:10.956Z21.299° NNE17.188°2025-01-25 02:12:10.956Z54.494° ENE
7 mins2025-01-25 03:47:10.956Z317.809° NNW2025-01-25 03:50:10.956Z38.896° NE42.046°2025-01-25 03:54:10.956Z119.653° SE
|